USA 254

Last updated on Aug. 8, 2020, 5:32 a.m. UTC

1 40100U 14043B   20220.54754227  .00000023  00000-0  00000+0 0  9993
2 40100   0.6855  96.6491 0000553  14.4099 217.5720  1.00359231  6291
UTC
Height (km)
Latitude
Longitude
Inclination
Orbital Period
UTC large
Height (km)
Speed (km/s)
/
Latitude / Longitude
Inclination (degrees)
Orbital Period (minutes)
Azimuth
Elevation
Range (km)
Doppler Factor
iOS Compass Heading
iOS Angle

Next 30 passes for location: Hong Kong

Rise time Rise Azimuth (degrees) Set time Set Azimuth (degrees) Duration Max altitude (degrees)

No matching passes for this satellites